Regional Weather Roundup
Issued by NWS

Home | Current Version | Previous Version | Graphics & Text | Print | Product List | Glossary On
Versions: 1 2 3 4 5 6 7 8 9 10 11 12 13 14 15 16 17 18 19 20 21 22 23 24 25 26 27 28 29 30 31 32 33 34 35 36 37 38 39 40 41 42 43 44 45 46 47 48 49 50
000
ASUS45 KBOI 231310
RWRID
WEATHER ROUNDUP FOR IDAHO
NATIONAL WEATHER SERVICE BOISE ID
700 AM MDT SAT AUG 23 2014

NOTE: "FAIR" INDICATES FEW OR NO CLOUDS BELOW 12000 FEET
WITH NO SIGNIFICANT WEATHER AND/OR OBSTRUCTIONS TO VISIBILITY

IDZ012-014-231400-
SOUTHWEST IDAHO


CITY           SKY/WX    TMP DP  RH WIND       PRES   REMARKS
BOISE          CLEAR     53  46  77 CALM      30.03R
CALDWELL       CLEAR     52  36  54 W6        30.04S
MOUNTAIN HOME  CLEAR     52  43  71 N8        30.03R
$$

IDZ016-017-231400-
SOUTHCENTRAL IDAHO


CITY           SKY/WX    TMP DP  RH WIND       PRES   REMARKS
BURLEY         CLEAR     45  43  93 SW7       30.04R
JEROME         MOCLDY    48  46  93 S7        30.05R
TWIN FALLS     MOCLDY    53  44  71 SW14      30.05R
$$

IDZ019>023-231400-
SOUTHEAST IDAHO


CITY           SKY/WX    TMP DP  RH WIND       PRES   REMARKS
IDAHO FALLS    CLOUDY    52  51  97 SW9       30.03R
POCATELLO      MOCLDY    48  48 100 S6        30.05R
REXBURG        TSTM      51  49  92 S6        30.02R
$$

IDZ006-010-011-018-031-032-231400-
CENTRAL IDAHO MOUNTAINS


CITY           SKY/WX    TMP DP  RH WIND       PRES   REMARKS
MCCALL         MOCLDY    43  40  89 CALM      30.08R
HAILEY         PTCLDY    45  43  93 NW6       30.07S
STANLEY          N/A     40  39  97 CALM      30.13R
SALMON         CLOUDY    52  48  87 CALM      30.06R
CHALLIS        RAIN      46  45  96 CALM      30.08R
$$

IDZ002-004-006-007-026-231400-
NORTHERN IDAHO


CITY           SKY/WX    TMP DP  RH WIND       PRES   REMARKS
LEWISTON       CLOUDY    59  56  89 SW16      30.08R
LOWELL           N/A     56  55  97 CALM      30.09R
COEUR D`ALENE  CLEAR     52  43  71 NE8       30.13S
MULLAN PASS    MOCLDY    40  37  89 CALM      30.19R
$$



USA.gov is the U.S. government's official web portal to all federal, state and local government web resources and services.